Temp
87 85 82 83 84 84 84 84 83 84 84 83 83 83 83 84 84 84 83 84 84 84 84 84 84 84 84 84 84 84 84 84 84 84 84 84 84 83 83 84 85 84 83
90 87 82 83 84 83 84 84 84 84 84 83 84 84 83 84 84 84 83 84 83 83 84 84 84 84 84 84 84 84 84 84 84 85 85 85 84 84 84 85 85 83 83
91 88 86 83 83 83 84 84 84 84 84 84 83 83 83 83 83 83 84 83 84 83 83 84 84 84 84 84 84 84 84 84 84 85 86 85 83 84 84 83 83 83 83
93 92 88 82 83 83 83 84 84 83 83 83 83 83 83 83 83 83 84 84 84 82 83 83 83 84 85 85 84 84 84 84 84 84 86 88 87 84 84 83 83 83 83
95 93 86 83 83 83 83 83 84 84 83 84 83 83 84 83 83 84 84 84 84 84 83 84 83 84 84 85 84 84 84 84 84 86 83 83 83 84 83 83 83 83 84
93 90 84 84 83 84 84 83 84 84 84 84 84 84 84 84 84 78 84 84 82 84 84 84 83 84 84 84 84 84 84 85 85 85 84 85 83 84 84 84 84 83 82
92 89 87 83 84 84 84 84 84 84 83 83 82 82 82 84 84 84 84 83 84 84 84 83 83 83 83 83 83 83 84 85 85 87 86 83 82 83 83 83 83 83 83
93 90 88 84 84 84 84 84 84 84 83 82 82 82 81 82 82 84 84 83 84 84 84 84 84 83 84 84 84 84 84 84 88 85 84 83 81 83 84 83 83 83 83
96 93 89 88 85 84 84 84 84 83 83 83 82 82 80 82 82 82 83 84 83 85 85 84 84 84 83 84 84 84 84 85 84 85 87 83 82 83 84 83 83 83 83
96 95 93 91 90 87 85 84 84 84 83 83 82 82 82 82 81 82 82 84 84 85 85 84 84 84 84 84 84 84 84 85 84 86 87 83 82 84 84 83 83 83 82
95 97 96 93 92 85 86 85 84 84 83 82 81 81 79 79 82 84 82 82 83 83 84 84 84 84 84 84 84 84 85 84 87 86 85 81 82 84 84 83 83 83 82
93 89 92 93 92 89 90 84 84 85 83 79 79 77 76 77 79 83 84 82 84 84 84 84 84 84 84 85 84 84 83 84 86 82 83 81 83 84 84 83 83 82 82
93 91 94 94 88 94 90 88 83 83 77 80 79 80 79 77 81 81 80 81 81 83 81 83 83 84 84 82 82 86 82 81 82 84 82 81 83 84 84 84 83 82 83
92 95 98 98 95 95 95 90 84 79 76 80 79 80 79 78 80 78 77 81 82 82 81 82 83 83 80 81 82 79 80 86 81 81 81 81 82 84 84 84 83 83 83
95 95 97 94 90 90 88 91 84 80 75 74 74 76 76 78 77 77 76 78 78 80 83 83 84 83 83 87 86 85 85 84 82 81 81 82 82 82 84 83 83 83 83
93 96 93 93 89 91 88 89 88 86 77 74 75 77 78 79 78 77 77 77 77 81 83 82 82 83 83 86 83 85 84 84 84 81 82 82 82 82 82 83 83 83 83
97 95 95 91 92 89 87 89 88 88 81 80 80 82 88 80 77 78 77 77 78 80 82 82 83 83 83 85 83 84 84 86 84 84 81 76 81 82 82 82 82 82 83
88 93 94 96 93 89 90 90 87 87 87 88 86 89 90 83 77 78 77 78 80 79 79 81 82 82 82 83 83 81 82 84 85 81 79 81 82 83 82 82 82 82 82
74 78 93 89 87 84 88 89 89 87 89 85 86 86 89 90 85 77 78 77 80 80 81 82 80 81 80 81 81 83 83 83 82 87 83 84 83 83 81 82 81 81 83
77 83 92 90 89 88 90 91 86 90 88 86 86 84 89 84 88 82 81 79 79 79 79 79 78 80 81 81 85 84 82 83 83 83 84 86 84 84 84 81 80 81 81
94 91 91 91 89 90 88 87 88 83 85 86 86 88 89 87 88 89 80 80 83 79 81 82 83 79 81 82 77 79 79 82 83 83 83 84 82 84 86 79 77 76 81
93 89 89 84 87 89 89 89 88 89 84 85 85 87 92 93 89 89 86 82 82 80 81 82 80 80 80 83 79 77 73 75 80 82 83 84 83 81 82 79 79 76 76
91 89 88 85 84 88 88 92 89 87 89 86 88 85 80 90 90 88 89 86 85 82 79 81 82 81 77 82 81 77 71 69 75 78 76 76 83 82 81 79 83 80 79
93 94 90 86 88 90 89 88 86 84 83 83 84 81 83 86 91 87 87 88 85 81 80 80 83 79 79 77 79 82 80 78 72 70 74 72 71 72 86 84 84 84 83
98 97 94 89 88 90 88 87 87 85 85 82 86 86 88 89 90 91 87 87 86 83 82 81 82 80 79 77 78 79 78 77 75 71 72 72 70 72 74 72 82 81 86
99 98 97 89 88 88 88 87 86 81 84 85 86 87 86 89 88 88 88 86 86 86 83 83 83 82 79 79 78 78 77 75 73 72 70 72 73 79 79 71 71 70 74
MSLP
1011.81 1012.74 1013.24 1013.44 1013.57 1013.76 1013.88 1014.06 1014.27 1014.34 1014.46 1014.64 1014.74 1014.91 1015.08 1015.12 1015.20 1015.35 1015.47 1015.60 1015.62 1015.59 1015.57 1015.58 1015.65 1015.68 1015.78 1015.72 1015.85 1016.06 1016.34 1016.56 1016.79 1017.05 1017.20 1017.25 1017.42 1017.51 1017.56 1017.59 1017.75 1018.29 1018.61
1011.51 1012.52 1013.26 1013.55 1013.73 1013.99 1014.17 1014.26 1014.37 1014.45 1014.59 1014.71 1014.85 1015.02 1015.13 1015.28 1015.36 1015.49 1015.63 1015.72 1015.75 1015.77 1015.81 1015.76 1015.86 1015.93 1016.02 1016.00 1016.08 1016.25 1016.42 1016.62 1016.86 1017.10 1017.35 1017.54 1017.65 1017.73 1017.75 1017.95 1018.08 1018.75 1019.01
1011.23 1012.54 1013.20 1013.60 1013.88 1014.11 1014.32 1014.43 1014.51 1014.64 1014.79 1014.89 1015.07 1015.15 1015.31 1015.48 1015.61 1015.64 1015.72 1015.90 1015.90 1015.96 1015.99 1015.98 1016.15 1016.21 1016.27 1016.32 1016.35 1016.39 1016.54 1016.77 1016.97 1017.00 1016.96 1017.41 1017.97 1018.05 1018.19 1018.41 1018.69 1019.02 1019.20
1010.89 1011.91 1012.99 1013.73 1013.96 1014.19 1014.43 1014.55 1014.64 1014.82 1014.96 1015.01 1015.17 1015.30 1015.43 1015.57 1015.70 1015.88 1015.92 1016.03 1016.10 1016.10 1016.25 1016.22 1016.44 1016.49 1016.63 1016.69 1016.68 1016.61 1016.82 1016.95 1017.22 1017.24 1017.02 1017.29 1017.93 1018.60 1018.62 1018.88 1019.11 1019.37 1019.59
1010.32 1011.67 1013.15 1013.80 1014.05 1014.29 1014.47 1014.68 1014.78 1014.88 1014.99 1015.06 1015.22 1015.46 1015.59 1015.66 1015.82 1015.97 1016.16 1016.20 1016.27 1016.20 1016.36 1016.50 1016.65 1016.77 1016.94 1017.05 1017.03 1016.96 1017.16 1017.25 1017.46 1017.49 1017.48 1017.52 1018.24 1018.88 1019.00 1019.17 1019.42 1019.66 1019.75
1010.92 1012.30 1013.30 1013.78 1014.13 1014.33 1014.53 1014.70 1014.84 1015.02 1015.08 1015.22 1015.31 1015.49 1015.67 1015.76 1015.94 1016.15 1016.25 1016.39 1016.53 1016.50 1016.56 1016.79 1016.85 1016.96 1017.15 1017.31 1017.34 1017.18 1017.33 1017.44 1017.64 1017.39 1017.41 1017.69 1018.39 1019.06 1019.26 1019.35 1019.65 1019.95 1020.13
1011.23 1012.52 1013.12 1013.83 1014.16 1014.36 1014.52 1014.76 1014.88 1015.01 1015.15 1015.33 1015.50 1015.59 1015.92 1015.99 1016.07 1016.17 1016.37 1016.49 1016.53 1016.73 1016.77 1016.94 1017.11 1017.21 1017.29 1017.57 1017.59 1017.44 1017.51 1017.54 1017.42 1017.24 1017.52 1018.14 1018.79 1019.13 1019.40 1019.63 1019.90 1020.17 1020.43
1010.74 1012.27 1013.20 1013.98 1014.18 1014.43 1014.61 1014.79 1014.90 1015.04 1015.12 1015.32 1015.45 1015.51 1015.91 1016.19 1016.30 1016.29 1016.42 1016.71 1016.81 1016.83 1016.99 1017.08 1017.21 1017.42 1017.49 1017.68 1017.76 1017.74 1017.62 1017.82 1017.18 1017.56 1017.69 1018.32 1018.99 1019.15 1019.45 1019.73 1020.00 1020.30 1020.57
1010.58 1011.82 1013.01 1013.73 1014.15 1014.42 1014.63 1014.78 1014.87 1014.97 1015.10 1015.27 1015.43 1015.49 1015.89 1016.07 1016.27 1016.43 1016.52 1016.65 1016.91 1016.86 1017.03 1017.20 1017.36 1017.51 1017.74 1017.79 1017.88 1017.82 1017.80 1017.90 1017.82 1017.72 1017.69 1018.44 1019.08 1019.15 1019.60 1019.90 1020.12 1020.37 1020.62
1010.32 1011.21 1012.01 1013.05 1013.71 1013.93 1014.40 1014.62 1014.83 1015.03 1015.19 1015.25 1015.29 1015.47 1015.69 1015.98 1016.22 1016.33 1016.47 1016.67 1016.91 1016.96 1017.11 1017.27 1017.47 1017.66 1017.82 1017.91 1017.93 1017.79 1017.72 1017.72 1017.56 1017.28 1017.69 1018.40 1018.96 1019.17 1019.55 1019.93 1020.25 1020.43 1020.65
1010.19 1010.55 1011.12 1011.94 1012.77 1013.60 1014.00 1014.49 1014.84 1015.06 1015.18 1015.35 1015.47 1015.50 1015.73 1016.03 1016.00 1016.10 1016.38 1016.71 1016.88 1017.05 1017.20 1017.26 1017.45 1017.61 1017.73 1017.83 1017.87 1017.75 1017.80 1017.58 1017.34 1017.49 1017.66 1018.39 1018.74 1019.15 1019.55 1019.91 1020.18 1020.44 1020.67
1010.09 1010.89 1011.34 1011.59 1012.27 1013.02 1013.53 1014.27 1014.71 1015.03 1015.31 1015.95 1016.08 1016.23 1016.26 1016.28 1016.22 1016.08 1016.18 1016.57 1016.73 1016.96 1017.16 1017.23 1017.36 1017.54 1017.66 1017.54 1017.70 1017.82 1017.71 1017.49 1017.37 1017.91 1017.89 1018.12 1018.52 1019.01 1019.49 1019.87 1020.14 1020.43 1020.60
1009.96 1010.89 1011.15 1011.46 1012.16 1012.22 1012.93 1013.63 1014.57 1015.00 1015.59 1016.00 1016.50 1016.71 1016.85 1016.65 1016.09 1016.26 1016.33 1016.40 1016.56 1016.82 1016.97 1017.11 1017.24 1017.30 1017.21 1017.27 1017.38 1017.32 1017.35 1017.40 1017.43 1017.60 1018.33 1018.47 1018.32 1018.70 1019.24 1019.59 1019.93 1020.27 1020.46
1009.77 1009.87 1010.52 1011.12 1011.75 1011.89 1012.46 1013.31 1014.37 1014.90 1015.37 1015.96 1016.22 1016.38 1016.31 1016.58 1015.87 1015.93 1016.20 1016.02 1016.06 1016.39 1016.69 1016.64 1016.69 1016.63 1016.79 1017.01 1016.95 1017.12 1017.42 1017.13 1017.56 1017.70 1018.20 1018.58 1018.48 1018.39 1018.89 1019.23 1019.57 1019.86 1020.14
1009.42 1009.97 1010.41 1011.28 1012.02 1012.59 1013.15 1012.95 1014.00 1014.46 1015.22 1015.57 1015.87 1014.13 1015.93 1015.70 1015.71 1015.55 1015.76 1016.01 1016.09 1016.01 1016.18 1016.10 1016.17 1016.40 1016.41 1016.19 1016.25 1016.47 1016.68 1016.70 1017.11 1017.71 1017.74 1017.84 1018.30 1018.47 1018.59 1019.00 1019.29 1019.57 1019.83
1009.61 1009.88 1010.69 1011.52 1012.40 1012.86 1013.26 1013.38 1013.54 1013.78 1014.68 1014.67 1015.23 1015.45 1015.42 1015.24 1015.06 1014.77 1015.38 1015.72 1015.95 1015.88 1015.85 1015.75 1015.87 1015.90 1016.18 1016.03 1016.22 1016.24 1016.30 1016.44 1016.60 1017.16 1017.34 1017.61 1017.80 1018.23 1018.42 1018.72 1019.07 1019.30 1019.46
1009.58 1010.05 1010.80 1011.70 1012.47 1012.96 1013.27 1013.42 1013.42 1013.32 1013.79 1014.22 1014.55 1014.48 1014.18 1015.04 1014.76 1014.83 1015.09 1015.43 1015.60 1015.76 1015.61 1015.71 1015.66 1015.70 1016.01 1015.73 1016.06 1016.09 1016.21 1016.17 1016.24 1016.49 1017.06 1017.32 1017.83 1017.81 1018.01 1018.40 1018.63 1018.97 1019.17
1010.14 1010.44 1011.16 1011.63 1012.26 1012.71 1012.80 1012.88 1012.98 1013.11 1013.14 1013.26 1013.65 1013.34 1013.92 1014.16 1014.24 1014.62 1014.98 1015.24 1015.31 1015.71 1015.73 1015.99 1015.92 1015.87 1015.96 1015.73 1015.89 1015.88 1016.11 1015.94 1015.98 1016.40 1017.08 1017.15 1017.30 1017.51 1017.62 1017.79 1018.04 1018.13 1018.39
1011.04 1011.72 1011.21 1011.68 1012.12 1012.36 1012.60 1012.62 1012.75 1012.72 1012.61 1012.98 1013.27 1013.28 1013.52 1013.47 1013.90 1014.40 1014.65 1014.85 1015.08 1015.35 1015.55 1015.79 1016.01 1016.12 1016.10 1015.93 1015.61 1015.67 1015.60 1015.81 1015.94 1015.91 1016.19 1016.32 1016.62 1016.83 1017.12 1017.18 1017.29 1017.50 1017.72
1011.28 1011.64 1011.30 1011.59 1012.03 1012.17 1012.36 1012.49 1012.57 1012.19 1012.27 1012.43 1012.94 1013.04 1013.22 1013.44 1013.55 1014.02 1014.55 1014.72 1014.79 1015.32 1015.52 1015.71 1015.92 1016.03 1015.96 1015.68 1015.47 1015.13 1015.23 1015.36 1015.40 1015.68 1015.72 1015.48 1015.63 1015.95 1016.07 1016.36 1016.80 1017.00 1017.07
1010.25 1010.90 1011.56 1011.68 1011.93 1012.12 1012.27 1012.16 1012.10 1012.13 1012.16 1012.35 1012.72 1012.77 1012.89 1013.11 1013.30 1013.42 1014.21 1014.57 1014.49 1015.06 1015.14 1015.31 1015.44 1015.76 1015.59 1015.32 1015.49 1015.29 1015.18 1015.06 1015.18 1015.15 1014.94 1015.06 1015.16 1015.05 1014.87 1015.52 1016.06 1016.42 1016.80
1009.97 1010.93 1011.46 1011.72 1011.97 1012.17 1012.00 1011.81 1011.84 1012.03 1012.35 1012.32 1012.57 1012.65 1012.48 1012.66 1013.05 1013.49 1013.90 1014.13 1014.37 1014.83 1015.11 1015.15 1015.31 1015.30 1015.26 1014.75 1014.92 1014.97 1015.16 1015.36 1014.85 1014.34 1014.47 1014.39 1014.35 1014.38 1014.45 1015.17 1015.43 1015.81 1015.98
1009.32 1010.20 1010.76 1011.25 1011.73 1011.82 1011.81 1011.79 1012.02 1012.34 1012.38 1012.53 1012.55 1013.11 1013.27 1012.93 1012.90 1013.29 1013.33 1013.77 1014.12 1014.70 1014.88 1015.01 1014.98 1014.96 1014.91 1014.29 1014.33 1014.78 1015.06 1015.26 1014.77 1014.27 1014.57 1015.26 1014.90 1014.92 1014.53 1014.23 1014.52 1015.00 1015.18
1008.35 1009.22 1009.85 1010.62 1011.01 1011.31 1011.68 1011.78 1011.88 1012.37 1012.49 1012.48 1012.49 1012.88 1013.09 1012.87 1012.58 1012.99 1013.11 1013.25 1013.69 1014.22 1014.70 1014.88 1014.81 1014.81 1014.84 1014.65 1014.32 1014.22 1014.24 1014.82 1014.94 1014.80 1014.68 1015.58 1014.35 1014.33 1014.03 1013.35 1013.71 1014.02 1014.24
1007.48 1008.35 1009.12 1009.96 1010.50 1010.88 1011.35 1011.68 1011.86 1012.20 1012.19 1012.14 1012.48 1012.58 1012.62 1012.54 1012.42 1012.47 1012.94 1013.19 1013.51 1013.77 1014.36 1014.61 1014.58 1014.79 1014.81 1014.86 1014.64 1014.45 1014.37 1014.47 1014.67 1014.90 1014.14 1014.59 1014.61 1014.32 1013.80 1013.30 1013.65 1014.19 1013.61
1006.73 1007.56 1008.28 1009.26 1009.99 1010.58 1011.07 1011.53 1011.82 1012.04 1012.05 1012.22 1012.11 1012.25 1012.24 1012.14 1012.32 1012.40 1012.37 1012.73 1013.00 1013.44 1013.91 1014.08 1014.28 1014.44 1014.48 1014.46 1014.42 1014.27 1014.30 1014.53 1014.54 1014.94 1015.02 1014.46 1013.74 1012.98 1013.02 1013.69 1013.38 1013.71 1014.49
Wind_Speed
13 12 10 9 11 9 10 12 11 10 8 8 7 7 6 8 8 7 7 6 5 5 6 7 9 12 13 14 13 15 15 15 16 18 17 17 15 14 14 15 19 16 15
18 14 11 10 11 9 10 10 10 10 8 8 7 7 6 5 6 6 5 5 4 5 6 8 10 11 13 14 13 14 13 13 15 18 18 17 14 11 8 12 19 15 15
19 15 13 10 10 11 8 10 9 8 8 8 7 6 6 5 5 5 5 5 3 7 7 11 11 13 13 13 14 11 12 11 13 17 19 11 11 16 17 17 18 15 15
18 16 15 11 11 10 8 9 9 9 8 8 8 6 6 7 7 7 6 6 3 6 9 10 11 12 14 12 12 9 10 9 8 9 1 11 13 14 15 16 16 15 15
17 18 16 14 11 10 9 9 9 8 8 8 9 8 8 8 8 7 7 6 5 5 8 9 11 13 12 12 10 6 7 8 7 3 4 7 9 11 12 14 13 13 14
18 18 17 15 13 10 9 10 10 9 9 10 13 13 12 8 9 5 4 6 6 6 7 8 10 14 13 12 9 6 6 6 8 9 6 12 11 12 10 12 14 13 13
20 17 17 14 13 11 11 10 10 9 11 12 12 13 11 10 8 5 4 4 7 7 7 7 9 10 12 9 8 4 4 4 6 6 9 11 11 12 13 13 13 12 12
20 19 16 14 13 12 12 11 11 10 11 11 9 9 8 8 9 7 6 3 5 8 7 8 7 10 9 10 7 4 6 6 6 3 7 10 12 13 14 12 12 11 12
20 18 15 14 12 13 13 12 12 12 11 11 9 9 8 6 6 6 7 4 6 7 8 7 8 8 9 8 7 4 6 7 7 6 11 9 12 16 13 12 11 11 11
16 18 17 15 14 12 11 13 12 12 12 12 11 8 7 5 3 3 2 5 3 5 7 9 8 8 7 8 8 8 8 9 7 5 9 9 14 15 13 11 11 10 10
8 13 16 17 15 11 11 11 12 12 13 13 9 8 5 2 5 7 7 4 4 4 8 10 10 8 8 8 9 10 8 5 6 1 7 18 16 14 13 12 11 10 10
9 14 8 8 16 14 10 11 9 8 6 4 3 2 2 3 2 4 5 5 5 7 7 8 10 10 8 6 5 8 4 5 3 3 5 19 18 16 13 12 11 11 10
12 16 16 12 3 16 11 9 5 3 4 3 4 5 4 4 4 5 2 4 5 8 5 6 6 6 9 5 3 6 5 3 2 2 9 14 17 16 15 13 12 11 11
15 9 10 11 6 6 4 8 8 5 4 3 4 7 6 5 5 3 4 5 5 6 7 7 6 6 5 6 7 5 7 6 4 4 9 12 14 17 16 15 15 14 14
13 11 11 12 7 4 3 1 6 5 4 4 3 7 10 7 7 5 6 4 5 4 8 7 6 5 6 5 5 6 7 7 5 1 6 20 15 15 16 16 16 15 16
12 12 14 13 7 5 4 4 2 6 7 6 8 11 10 5 4 3 5 6 6 5 6 3 3 5 4 6 4 1 4 4 5 11 6 8 17 16 15 15 16 17 16
11 11 12 13 10 6 7 5 4 3 4 8 7 14 7 7 1 4 3 5 6 6 5 4 4 3 5 5 6 5 4 4 5 5 7 7 10 18 18 17 18 16 17
9 12 10 10 12 11 9 5 3 3 3 1 4 4 4 8 8 4 3 4 4 4 4 3 4 1 4 3 6 5 5 5 5 6 11 8 8 8 14 19 18 19 20
14 11 9 9 8 2 5 4 6 6 5 4 4 3 4 3 9 5 3 3 6 5 4 5 3 4 3 5 5 8 6 6 6 6 7 9 11 9 8 17 21 20 22
25 17 5 3 9 7 3 2 3 4 2 4 4 4 3 2 6 5 4 5 5 4 5 4 5 5 5 5 6 4 5 5 5 6 9 7 7 10 11 10 11 12 23
13 10 6 6 4 2 3 4 5 3 3 2 4 7 6 3 6 1 5 6 3 2 3 5 4 7 5 6 3 3 4 5 7 7 7 8 9 9 9 10 6 4 8
15 12 8 8 8 5 5 3 2 2 4 1 4 3 4 1 5 0 1 5 6 4 5 5 6 5 5 5 3 2 1 3 2 5 6 7 6 5 5 9 9 10 9
14 14 11 9 10 8 7 2 3 3 2 2 2 3 2 4 4 6 2 4 4 4 4 4 5 5 5 4 7 2 1 3 2 2 4 8 8 6 6 7 9 12 12
16 14 12 12 9 8 7 5 6 4 3 3 3 3 4 9 4 6 5 3 5 5 5 5 5 5 3 4 1 3 4 3 2 4 3 5 4 12 11 9 10 11 13
13 12 13 12 9 6 8 6 5 4 3 5 4 6 5 4 5 4 7 4 4 3 5 7 5 4 4 3 2 3 2 2 5 5 7 2 1 7 4 6 6 5 10
15 14 14 13 9 8 8 7 5 6 6 3 2 4 4 5 5 4 7 7 5 4 5 4 5 6 5 5 4 5 3 3 2 3 3 5 5 5 6 0 6 1 7
Wind_Direction
132 128 129 117 104 96 96 103 119 129 128 110 99 90 77 89 93 81 80 70 63 89 105 113 119 111 110 100 99 95 95 99 102 99 97 94 96 104 111 115 106 102 109
120 130 130 129 111 102 108 104 108 122 123 112 105 104 91 75 87 91 89 74 85 103 123 128 131 120 115 114 108 108 113 115 116 110 103 97 90 87 127 106 94 108 111
121 128 134 135 125 112 111 113 118 121 124 113 102 98 91 85 87 90 81 70 79 100 124 131 129 125 123 119 116 126 127 128 130 134 133 100 88 90 96 102 106 109 107
130 139 132 129 131 120 119 116 116 112 110 115 106 99 95 86 91 98 98 103 96 98 108 126 133 129 123 125 124 142 132 136 139 162 137 118 95 99 103 103 107 112 112
121 109 122 126 124 123 127 116 114 115 103 102 97 96 89 89 87 91 96 103 117 102 101 126 138 131 127 128 132 157 151 160 146 234 265 116 102 100 104 110 113 119 117
112 113 121 124 126 125 118 120 119 116 117 101 97 91 83 86 92 22 94 108 121 121 111 112 133 127 133 135 150 189 180 181 186 209 91 98 100 113 112 100 103 109 115
117 122 118 122 126 129 127 124 122 124 107 112 112 101 70 69 72 124 115 132 126 124 121 120 123 127 134 141 148 212 234 247 289 116 101 104 115 120 115 115 113 117 116
123 115 123 131 134 130 129 131 127 122 128 128 127 108 97 79 67 70 87 130 139 128 133 136 131 133 130 145 146 205 262 287 295 137 110 114 135 129 128 125 125 122 120
123 126 135 136 137 136 134 131 139 135 137 137 141 143 139 139 94 81 61 100 148 147 143 141 148 138 149 153 157 220 272 275 294 177 124 126 145 133 135 133 133 131 126
143 142 146 143 152 151 147 140 142 140 145 152 149 159 154 132 125 178 71 99 153 152 154 150 144 151 164 173 193 239 270 297 277 288 130 137 149 142 146 147 147 140 136
152 168 148 157 156 145 139 153 149 156 165 176 170 165 169 208 218 194 121 103 151 142 162 164 165 171 176 188 206 231 251 250 243 158 125 150 149 149 153 157 159 161 157
176 108 138 162 146 156 160 156 162 173 163 178 197 179 153 187 207 200 145 145 170 167 170 177 184 191 197 187 198 226 231 244 317 79 143 152 153 152 163 167 172 171 172
175 156 161 123 167 161 155 163 151 163 127 189 201 216 216 225 199 187 208 189 184 192 185 186 192 207 205 237 250 197 202 276 122 39 148 157 152 158 171 177 175 180 186
141 158 150 143 144 113 116 133 145 161 160 173 225 214 233 218 214 184 187 213 200 166 201 202 195 195 229 215 224 245 183 216 133 145 158 171 165 167 177 187 187 190 186
155 155 170 126 85 91 312 124 122 121 124 181 215 247 246 207 212 190 189 199 206 186 189 211 221 188 203 203 215 182 164 201 164 88 159 165 181 183 182 193 196 197 198
171 163 120 129 114 161 254 20 86 171 148 169 214 203 217 219 245 194 170 185 199 208 222 249 217 161 176 233 167 191 290 203 170 177 167 179 182 190 189 194 200 203 204
157 138 122 125 153 191 229 170 214 220 201 195 193 208 113 116 250 328 196 185 185 234 188 203 253 210 195 226 167 185 204 272 188 160 167 158 204 195 193 197 200 208 213
45 120 148 150 168 195 202 190 207 244 176 123 216 115 113 149 148 189 222 168 171 204 196 180 268 221 281 276 176 182 195 221 215 153 219 188 190 200 202 201 206 202 207
22 294 158 161 167 134 188 199 234 209 194 202 182 145 144 120 130 131 164 170 173 182 191 208 199 229 224 270 264 177 193 204 213 203 222 186 190 194 195 207 205 206 208
179 228 134 131 143 173 174 219 261 202 238 202 167 136 146 155 131 152 160 170 172 190 189 192 189 216 238 239 262 209 187 214 193 211 216 215 190 202 204 195 203 212 209
155 137 171 156 115 227 205 237 221 243 226 147 160 164 162 207 119 61 153 149 158 197 195 171 183 181 230 234 266 207 245 224 218 221 207 207 214 211 203 185 182 179 216
154 143 191 157 174 206 235 257 37 343 53 77 86 276 117 136 137 323 118 159 150 170 204 189 209 193 226 234 209 243 248 332 260 218 208 226 192 178 175 169 184 198 220
156 168 180 167 183 199 235 230 93 353 303 249 172 55 16 255 176 173 217 135 149 162 198 205 243 228 250 230 186 180 281 216 262 18 340 333 262 188 196 208 216 207 212
164 176 173 173 188 188 210 253 156 195 218 277 153 176 209 241 189 171 192 187 161 178 191 204 240 247 195 266 44 277 224 211 232 298 197 175 104 274 225 194 216 226 209
168 174 173 170 177 204 178 241 145 236 223 190 148 179 178 170 201 197 164 168 285 102 182 197 208 227 279 281 267 263 251 284 257 262 288 215 280 252 174 314 318 316 219
177 187 171 164 175 170 174 189 193 205 256 307 191 193 229 202 190 200 171 174 209 194 194 225 202 200 213 228 235 272 222 222 260 255 307 311 288 291 48 297 220 162 314